Time,TemperatureF,DewpointF,PressureIn,WindDirection,WindDirectionDegrees,WindSpeedMPH,WindSpeedGustMPH,Humidity,HourlyPrecipIn,Conditions,Clouds,dailyrainin,SolarRadiationWatts/m^2,SoftwareType,DateUTC
2013-04-07 00:05:00,54.8,51.0,30.22,West,259,4.0,5.0,87,0.00,,,0.00,0,Wunderground v.1.15,2013-04-07 07:05:00,
2013-04-07 00:15:00,54.6,50.8,30.22,WNW,292,3.0,5.0,87,0.00,,,0.00,0,Wunderground v.1.15,2013-04-07 07:15:00,
2013-04-07 00:24:00,54.3,50.8,30.22,NW,315,3.0,4.0,88,0.00,,,0.00,0,Wunderground v.1.15,2013-04-07 07:24:00,
2013-04-07 00:30:00,54.2,50.7,30.22,NW,316,1.0,1.0,88,0.00,,,0.00,0,Wunderground v.1.15,2013-04-07 07:30:00,
2013-04-07 00:40:00,54.1,50.6,30.22,NW,316,0.0,0.0,88,0.00,,,0.00,0,Wunderground v.1.15,2013-04-07 07:40:00,
2013-04-07 00:49:00,54.1,50.6,30.22,NW,315,0.0,1.0,88,0.00,,,0.00,0,Wunderground v.1.15,2013-04-07 07:49:00,
2013-04-07 00:55:00,54.3,51.1,30.22,NW,316,1.0,2.0,89,0.00,,,0.00,0,Wunderground v.1.15,2013-04-07 07:55:00,
2013-04-07 01:04:00,54.5,51.0,30.21,NW,315,2.0,2.0,88,0.00,,,0.00,0,Wunderground v.1.15,2013-04-07 08:04:00,
2013-04-07 01:10:00,54.5,51.0,30.21,NW,314,1.0,1.0,88,0.00,,,0.00,0,Wunderground v.1.15,2013-04-07 08:10:00,
2013-04-07 01:19:00,54.7,50.9,30.21,NW,316,2.0,3.0,87,0.00,,,0.00,0,Wunderground v.1.15,2013-04-07 08:19:00,
2013-04-07 01:25:00,54.7,50.9,30.21,NW,314,3.0,3.0,87,0.00,,,0.00,0,Wunderground v.1.15,2013-04-07 08:25:00,
2013-04-07 01:34:00,54.8,51.0,30.20,WNW,300,2.0,3.0,87,0.00,,,0.00,0,Wunderground v.1.15,2013-04-07 08:34:00,
2013-04-07 01:40:00,54.8,51.0,30.20,WNW,289,2.0,2.0,87,0.00,,,0.00,0,Wunderground v.1.15,2013-04-07 08:40:00,
2013-04-07 01:55:00,54.9,50.8,30.20,WNW,291,0.0,1.0,86,0.00,,,0.00,0,Wunderground v.1.15,2013-04-07 08:55:00,
2013-04-07 02:05:00,54.9,50.8,30.20,WNW,290,1.0,2.0,86,0.00,,,0.00,0,Wunderground v.1.15,2013-04-07 09:05:00,
2013-04-07 02:14:00,54.9,50.8,30.20,WNW,292,2.0,3.0,86,0.00,,,0.00,0,Wunderground v.1.15,2013-04-07 09:14:00,
2013-04-07 02:20:00,55.0,50.9,30.20,WNW,302,4.0,4.0,86,0.00,,,0.00,0,Wunderground v.1.15,2013-04-07 09:20:00,
2013-04-07 02:29:00,55.1,51.0,30.20,WNW,303,3.0,3.0,86,0.00,,,0.00,0,Wunderground v.1.15,2013-04-07 09:29:00,
2013-04-07 02:34:00,55.1,51.0,30.20,NW,304,3.0,5.0,86,0.00,,,0.00,0,Wunderground v.1.15,2013-04-07 09:34:00,
2013-04-07 02:40:00,55.1,51.0,30.20,NW,304,3.0,5.0,86,0.00,,,0.00,0,Wunderground v.1.15,2013-04-07 09:40:00,
2013-04-07 02:50:00,55.2,51.1,30.19,WNW,301,2.0,2.0,86,0.00,,,0.00,0,Wunderground v.1.15,2013-04-07 09:50:00,
2013-04-07 02:59:00,55.1,51.3,30.19,NW,304,1.0,3.0,87,0.00,,,0.00,0,Wunderground v.1.15,2013-04-07 09:59:00,
2013-04-07 03:09:00,55.1,51.6,30.19,WNW,292,3.0,3.0,88,0.00,,,0.00,0,Wunderground v.1.15,2013-04-07 10:09:00,
2013-04-07 03:15:00,55.1,51.6,30.18,WNW,297,4.0,5.0,88,0.00,,,0.00,0,Wunderground v.1.15,2013-04-07 10:15:00,
2013-04-07 03:25:00,55.1,51.9,30.18,WNW,287,5.0,6.0,89,0.00,,,0.00,0,Wunderground v.1.15,2013-04-07 10:25:00,
2013-04-07 03:35:00,55.0,52.1,30.18,WNW,287,4.0,6.0,90,0.00,,,0.00,0,Wunderground v.1.15,2013-04-07 10:35:00,
2013-04-07 03:44:00,54.9,52.0,30.17,West,275,4.0,4.0,90,0.00,,,0.00,0,Wunderground v.1.15,2013-04-07 10:44:00,
2013-04-07 03:50:00,54.8,51.9,30.17,West,272,3.0,5.0,90,0.00,,,0.00,0,Wunderground v.1.15,2013-04-07 10:50:00,
2013-04-07 04:05:00,54.7,51.8,30.17,West,269,3.0,3.0,90,0.00,,,0.00,0,Wunderground v.1.15,2013-04-07 11:05:00,
2013-04-07 04:15:00,54.6,52.0,30.17,West,268,4.0,4.0,91,0.00,,,0.00,0,Wunderground v.1.15,2013-04-07 11:15:00,
2013-04-07 04:24:00,54.6,52.0,30.17,West,269,3.0,4.0,91,0.00,,,0.00,0,Wunderground v.1.15,2013-04-07 11:24:00,
2013-04-07 04:34:00,54.6,52.0,30.17,West,268,4.0,5.0,91,0.00,,,0.00,0,Wunderground v.1.15,2013-04-07 11:34:00,
2013-04-07 04:40:00,54.7,52.1,30.17,West,264,5.0,5.0,91,0.00,,,0.00,0,Wunderground v.1.15,2013-04-07 11:40:00,
2013-04-07 04:50:00,54.7,52.1,30.17,WSW,257,4.0,4.0,91,0.00,,,0.00,0,Wunderground v.1.15,2013-04-07 11:50:00,
2013-04-07 05:00:00,54.8,52.2,30.17,WSW,257,4.0,4.0,91,0.00,,,0.00,0,Wunderground v.1.15,2013-04-07 12:00:00,
2013-04-07 05:10:00,54.9,52.3,30.16,SW,235,3.0,5.0,91,0.00,,,0.00,0,Wunderground v.1.15,2013-04-07 12:10:00,
2013-04-07 05:24:00,54.8,52.5,30.17,SW,228,3.0,4.0,92,0.00,,,0.00,0,Wunderground v.1.15,2013-04-07 12:24:00,
2013-04-07 05:29:00,54.8,52.5,30.16,SW,226,2.0,6.0,92,0.00,,,0.00,0,Wunderground v.1.15,2013-04-07 12:29:00,
2013-04-07 05:35:00,54.8,52.5,30.16,SW,228,3.0,6.0,92,0.00,,,0.00,0,Wunderground v.1.15,2013-04-07 12:35:00,
2013-04-07 05:45:00,54.8,52.5,30.16,SW,227,4.0,5.0,92,0.00,,,0.00,0,Wunderground v.1.15,2013-04-07 12:45:00,
2013-04-07 05:54:00,54.8,52.5,30.16,SW,230,5.0,5.0,92,0.00,,,0.00,0,Wunderground v.1.15,2013-04-07 12:54:00,
2013-04-07 06:05:00,54.8,52.5,30.16,SW,218,5.0,5.0,92,0.00,,,0.00,0,Wunderground v.1.15,2013-04-07 13:05:00,
2013-04-07 06:14:00,54.8,52.5,30.16,SW,222,4.0,5.0,92,0.00,,,0.00,0,Wunderground v.1.15,2013-04-07 13:14:00,
2013-04-07 06:19:00,54.7,52.4,30.17,SW,222,4.0,4.0,92,0.00,,,0.00,0,Wunderground v.1.15,2013-04-07 13:19:00,
2013-04-07 06:25:00,54.6,52.3,30.17,SW,222,5.0,5.0,92,0.00,,,0.00,0,Wunderground v.1.15,2013-04-07 13:25:00,
2013-04-07 06:34:00,54.7,52.4,30.16,SW,224,5.0,5.0,92,0.00,,,0.00,0,Wunderground v.1.15,2013-04-07 13:34:00,
2013-04-07 06:40:00,54.8,52.5,30.16,SW,218,4.0,4.0,92,0.00,,,0.00,0,Wunderground v.1.15,2013-04-07 13:40:00,
2013-04-07 06:50:00,54.9,52.6,30.17,SW,218,2.0,5.0,92,0.00,,,0.00,0,Wunderground v.1.15,2013-04-07 13:50:00,
2013-04-07 06:59:00,54.8,52.5,30.17,WSW,248,3.0,3.0,92,0.00,,,0.00,11,Wunderground v.1.15,2013-04-07 13:59:00,
2013-04-07 07:09:00,54.8,52.5,30.17,WSW,246,2.0,2.0,92,0.00,,,0.00,14,Wunderground v.1.15,2013-04-07 14:09:00,
2013-04-07 07:14:00,54.8,52.5,30.17,WSW,248,3.0,5.0,92,0.00,,,0.00,21,Wunderground v.1.15,2013-04-07 14:14:00,
2013-04-07 07:20:00,54.8,52.5,30.17,WSW,250,4.0,4.0,92,0.00,,,0.00,33,Wunderground v.1.15,2013-04-07 14:20:00,
2013-04-07 07:30:00,54.9,52.6,30.17,WSW,239,4.0,7.0,92,0.00,,,0.00,79,Wunderground v.1.15,2013-04-07 14:30:00,
2013-04-07 07:39:00,55.1,52.8,30.17,WSW,240,4.0,5.0,92,0.00,,,0.00,62,Wunderground v.1.15,2013-04-07 14:39:00,
2013-04-07 07:44:00,55.1,52.8,30.17,SSW,213,5.0,5.0,92,0.00,,,0.00,47,Wunderground v.1.15,2013-04-07 14:44:00,
2013-04-07 07:49:00,55.1,52.8,30.17,West,260,6.0,9.0,92,0.00,,,0.00,62,Wunderground v.1.15,2013-04-07 14:49:00,
2013-04-07 07:55:00,55.1,52.8,30.17,WSW,241,6.0,9.0,92,0.00,,,0.00,107,Wunderground v.1.15,2013-04-07 14:55:00,
2013-04-07 08:04:00,55.3,53.0,30.17,WSW,251,6.0,7.0,92,0.00,,,0.00,125,Wunderground v.1.15,2013-04-07 15:04:00,
2013-04-07 08:09:00,55.4,53.1,30.17,WSW,249,5.0,6.0,92,0.00,,,0.00,158,Wunderground v.1.15,2013-04-07 15:09:00,
2013-04-07 08:19:00,55.7,53.1,30.17,WSW,258,5.0,6.0,91,0.00,,,0.00,204,Wunderground v.1.15,2013-04-07 15:19:00,
2013-04-07 08:25:00,55.9,53.3,30.17,WSW,237,5.0,6.0,91,0.00,,,0.00,246,Wunderground v.1.15,2013-04-07 15:25:00,
2013-04-07 08:35:00,56.1,53.2,30.17,SW,222,5.0,6.0,90,0.00,,,0.00,141,Wunderground v.1.15,2013-04-07 15:35:00,
2013-04-07 08:44:00,56.0,53.4,30.16,SSW,213,6.0,6.0,91,0.00,,,0.00,151,Wunderground v.1.15,2013-04-07 15:44:00,
2013-04-07 08:50:00,56.0,53.4,30.16,SW,218,6.0,7.0,91,0.00,,,0.00,211,Wunderground v.1.15,2013-04-07 15:50:00,
2013-04-07 09:00:00,56.2,53.6,30.16,SW,230,5.0,5.0,91,0.00,,,0.00,176,Wunderground v.1.15,2013-04-07 16:00:00,
2013-04-07 09:10:00,56.3,53.4,30.15,SW,230,5.0,5.0,90,0.00,,,0.00,214,Wunderground v.1.15,2013-04-07 16:10:00,
2013-04-07 09:20:00,56.1,53.2,30.15,WSW,245,5.0,5.0,90,0.00,,,0.00,253,Wunderground v.1.15,2013-04-07 16:20:00,
2013-04-07 09:29:00,56.2,53.3,30.15,SW,234,5.0,5.0,90,0.00,,,0.00,232,Wunderground v.1.15,2013-04-07 16:29:00,
2013-04-07 09:34:00,56.4,53.5,30.14,WSW,253,5.0,5.0,90,0.00,,,0.00,257,Wunderground v.1.15,2013-04-07 16:34:00,
2013-04-07 09:40:00,56.6,53.7,30.15,WSW,257,4.0,5.0,90,0.00,,,0.00,218,Wunderground v.1.15,2013-04-07 16:40:00,
2013-04-07 09:49:00,56.2,53.3,30.15,SSW,213,7.0,8.0,90,0.00,,,0.00,216,Wunderground v.1.15,2013-04-07 16:49:00,
2013-04-07 09:55:00,56.1,53.2,30.15,WSW,239,8.0,8.0,90,0.00,,,0.00,255,Wunderground v.1.15,2013-04-07 16:55:00,
2013-04-07 10:09:00,56.2,53.6,30.16,WSW,257,7.0,7.0,91,0.00,,,0.00,251,Wunderground v.1.15,2013-04-07 17:09:00,
2013-04-07 10:14:00,56.2,53.9,30.16,SSW,213,7.0,9.0,92,0.00,,,0.00,271,Wunderground v.1.15,2013-04-07 17:14:00,
2013-04-07 10:20:00,56.2,53.9,30.17,WSW,241,7.0,7.0,92,0.00,,,0.00,258,Wunderground v.1.15,2013-04-07 17:20:00,
2013-04-07 10:30:00,56.2,53.9,30.16,SSW,213,9.0,10.0,92,0.00,,,0.00,329,Wunderground v.1.15,2013-04-07 17:30:00,
2013-04-07 10:39:00,55.9,53.9,30.16,WSW,239,8.0,8.0,93,0.00,,,0.00,341,Wunderground v.1.15,2013-04-07 17:39:00,
2013-04-07 10:45:00,56.1,54.1,30.15,West,261,8.0,8.0,93,0.00,,,0.00,346,Wunderground v.1.15,2013-04-07 17:45:00,
2013-04-07 10:59:00,56.0,54.0,30.15,WSW,249,11.0,15.0,93,0.00,,,0.00,373,Wunderground v.1.15,2013-04-07 17:59:00,
2013-04-07 11:05:00,56.0,54.3,30.15,SW,230,10.0,15.0,94,0.00,,,0.00,415,Wunderground v.1.15,2013-04-07 18:05:00,
2013-04-07 11:14:00,56.0,54.3,30.15,WSW,257,10.0,11.0,94,0.00,,,0.00,427,Wunderground v.1.15,2013-04-07 18:14:00,
2013-04-07 11:20:00,56.0,54.3,30.15,SW,235,10.0,10.0,94,0.00,,,0.00,380,Wunderground v.1.15,2013-04-07 18:20:00,
2013-04-07 11:30:00,57.0,55.3,30.15,WSW,257,11.0,11.0,94,0.00,,,0.00,568,Wunderground v.1.15,2013-04-07 18:30:00,
2013-04-07 11:39:00,56.9,54.6,30.14,WSW,241,11.0,11.0,92,0.00,,,0.00,439,Wunderground v.1.15,2013-04-07 18:39:00,
2013-04-07 11:45:00,57.3,55.3,30.15,SW,218,8.0,11.0,93,0.00,,,0.00,378,Wunderground v.1.15,2013-04-07 18:45:00,
2013-04-07 11:54:00,57.9,55.6,30.14,WSW,256,6.0,7.0,92,0.00,,,0.00,413,Wunderground v.1.15,2013-04-07 18:54:00,
2013-04-07 11:59:00,58.3,56.0,30.14,SSW,213,6.0,8.0,92,0.00,,,0.00,355,Wunderground v.1.15,2013-04-07 18:59:00,
2013-04-07 12:05:00,58.4,55.8,30.14,WSW,245,6.0,9.0,91,0.00,,,0.00,371,Wunderground v.1.15,2013-04-07 19:05:00,
2013-04-07 12:10:00,58.5,55.6,30.13,West,259,6.0,9.0,90,0.00,,,0.00,387,Wunderground v.1.15,2013-04-07 19:10:00,
2013-04-07 12:20:00,58.9,55.4,30.13,WSW,249,7.0,7.0,88,0.00,,,0.00,861,Wunderground v.1.15,2013-04-07 19:20:00,
2013-04-07 12:30:00,59.8,56.6,30.13,WSW,239,7.0,7.0,89,0.00,,,0.00,865,Wunderground v.1.15,2013-04-07 19:30:00,
2013-04-07 12:40:00,59.5,55.9,30.12,SSW,213,6.0,9.0,88,0.00,,,0.00,819,Wunderground v.1.15,2013-04-07 19:40:00,
2013-04-07 12:49:00,59.3,55.4,30.13,West,266,8.0,8.0,87,0.00,,,0.00,543,Wunderground v.1.15,2013-04-07 19:49:00,
2013-04-07 12:55:00,59.5,54.0,30.11,West,262,9.0,13.0,82,0.00,,,0.00,538,Wunderground v.1.15,2013-04-07 19:55:00,
2013-04-07 13:10:00,59.9,52.7,30.10,West,272,11.0,15.0,77,0.00,,,0.00,506,Wunderground v.1.15,2013-04-07 20:10:00,
2013-04-07 13:20:00,59.4,51.8,30.09,WSW,249,14.0,15.0,76,0.00,,,0.00,629,Wunderground v.1.15,2013-04-07 20:20:00,
2013-04-07 13:29:00,59.9,51.6,30.10,SSW,213,13.0,17.0,74,0.00,,,0.00,835,Wunderground v.1.15,2013-04-07 20:29:00,
2013-04-07 13:39:00,60.3,51.6,30.09,West,264,13.0,13.0,73,0.00,,,0.00,902,Wunderground v.1.15,2013-04-07 20:39:00,
2013-04-07 13:44:00,60.2,51.5,30.09,WSW,256,12.0,13.0,73,0.00,,,0.00,881,Wunderground v.1.15,2013-04-07 20:44:00,
2013-04-07 13:50:00,60.0,51.7,30.08,WSW,247,13.0,14.0,74,0.00,,,0.00,865,Wunderground v.1.15,2013-04-07 20:50:00,
2013-04-07 13:59:00,60.0,52.4,30.08,WSW,248,13.0,13.0,76,0.00,,,0.00,875,Wunderground v.1.15,2013-04-07 20:59:00,
2013-04-07 14:05:00,59.9,52.3,30.08,SSW,213,13.0,13.0,76,0.00,,,0.00,870,Wunderground v.1.15,2013-04-07 21:05:00,
2013-04-07 14:14:00,59.9,52.3,30.07,SSW,213,13.0,14.0,76,0.00,,,0.00,865,Wunderground v.1.15,2013-04-07 21:14:00,
2013-04-07 14:24:00,59.9,52.3,30.06,West,259,13.0,13.0,76,0.00,,,0.00,861,Wunderground v.1.15,2013-04-07 21:24:00,
2013-04-07 14:30:00,59.8,52.9,30.06,West,262,12.0,12.0,78,0.00,,,0.00,830,Wunderground v.1.15,2013-04-07 21:30:00,
2013-04-07 14:40:00,59.8,52.6,30.06,WSW,255,12.0,12.0,77,0.00,,,0.00,840,Wunderground v.1.15,2013-04-07 21:40:00,
2013-04-07 14:50:00,60.1,52.1,30.06,WSW,256,11.0,12.0,75,0.00,,,0.00,826,Wunderground v.1.15,2013-04-07 21:50:00,
2013-04-07 14:59:00,60.2,52.2,30.05,WSW,256,12.0,15.0,75,0.00,,,0.00,828,Wunderground v.1.15,2013-04-07 21:59:00,
2013-04-07 15:05:00,60.2,52.2,30.05,West,278,13.0,15.0,75,0.00,,,0.00,837,Wunderground v.1.15,2013-04-07 22:05:00,
2013-04-07 15:14:00,60.7,52.7,30.05,WSW,250,11.0,13.0,75,0.00,,,0.00,619,Wunderground v.1.15,2013-04-07 22:14:00,
2013-04-07 15:20:00,60.8,52.5,30.05,West,259,11.0,11.0,74,0.00,,,0.00,631,Wunderground v.1.15,2013-04-07 22:20:00,
2013-04-07 15:30:00,60.1,52.1,30.05,West,268,12.0,14.0,75,0.00,,,0.00,587,Wunderground v.1.15,2013-04-07 22:30:00,
2013-04-07 15:40:00,59.7,52.1,30.04,West,259,12.0,13.0,76,0.00,,,0.00,512,Wunderground v.1.15,2013-04-07 22:40:00,
2013-04-07 15:45:00,59.3,51.7,30.03,West,259,12.0,13.0,76,0.00,,,0.00,659,Wunderground v.1.15,2013-04-07 22:45:00,
2013-04-07 15:55:00,59.2,51.6,30.04,West,262,13.0,13.0,76,0.00,,,0.00,668,Wunderground v.1.15,2013-04-07 22:55:00,
2013-04-07 16:04:00,59.1,51.5,30.04,West,270,12.0,13.0,76,0.00,,,0.00,501,Wunderground v.1.15,2013-04-07 23:04:00,
2013-04-07 16:15:00,59.1,51.2,30.03,West,268,12.0,14.0,75,0.00,,,0.00,555,Wunderground v.1.15,2013-04-07 23:15:00,
2013-04-07 16:24:00,58.9,51.3,30.03,West,273,12.0,16.0,76,0.00,,,0.00,515,Wunderground v.1.15,2013-04-07 23:24:00,
2013-04-07 16:30:00,59.0,51.1,30.03,SSW,213,12.0,19.0,75,0.00,,,0.00,554,Wunderground v.1.15,2013-04-07 23:30:00,
2013-04-07 16:39:00,59.1,50.8,30.03,SSW,213,12.0,12.0,74,0.00,,,0.00,411,Wunderground v.1.15,2013-04-07 23:39:00,
2013-04-07 16:50:00,58.8,50.5,30.02,West,270,13.0,13.0,74,0.00,,,0.00,570,Wunderground v.1.15,2013-04-07 23:50:00,
2013-04-07 17:00:00,58.4,50.5,30.02,West,259,12.0,12.0,75,0.00,,,0.00,343,Wunderground v.1.15,2013-04-08 00:00:00,
2013-04-07 17:09:00,58.0,50.5,30.02,WSW,251,12.0,12.0,76,0.00,,,0.00,278,Wunderground v.1.15,2013-04-08 00:09:00,
2013-04-07 17:15:00,58.0,50.5,30.02,West,265,12.0,12.0,76,0.00,,,0.00,297,Wunderground v.1.15,2013-04-08 00:15:00,
2013-04-07 17:24:00,57.8,50.6,30.01,West,280,12.0,12.0,77,0.00,,,0.00,236,Wunderground v.1.15,2013-04-08 00:24:00,
2013-04-07 17:30:00,57.6,50.1,30.01,WNW,290,12.0,15.0,76,0.00,,,0.00,279,Wunderground v.1.15,2013-04-08 00:30:00,
2013-04-07 17:40:00,57.7,50.5,30.01,West,271,14.0,16.0,77,0.00,,,0.00,204,Wunderground v.1.15,2013-04-08 00:40:00,
2013-04-07 17:49:00,57.1,50.3,30.00,WNW,284,13.0,16.0,78,0.00,,,0.00,199,Wunderground v.1.15,2013-04-08 00:49:00,
2013-04-07 17:54:00,56.8,50.4,30.00,West,278,13.0,16.0,79,0.00,,,0.00,232,Wunderground v.1.15,2013-04-08 00:54:00,
2013-04-07 18:04:00,57.4,50.6,30.00,West,278,12.0,18.0,78,0.00,,,0.00,376,Wunderground v.1.15,2013-04-08 01:04:00,
2013-04-07 18:10:00,57.2,50.7,30.00,West,277,11.0,12.0,79,0.00,,,0.00,341,Wunderground v.1.15,2013-04-08 01:10:00,
2013-04-07 18:20:00,56.9,49.4,29.99,SSW,213,14.0,16.0,76,0.00,,,0.00,234,Wunderground v.1.15,2013-04-08 01:20:00,
2013-04-07 18:29:00,56.4,48.9,29.99,WNW,296,15.0,15.0,76,0.00,,,0.00,165,Wunderground v.1.15,2013-04-08 01:29:00,
2013-04-07 18:35:00,56.4,49.3,30.00,WNW,291,15.0,15.0,77,0.00,,,0.00,118,Wunderground v.1.15,2013-04-08 01:35:00,
2013-04-07 18:44:00,55.9,48.8,30.00,NW,304,16.0,23.0,77,0.00,,,0.00,90,Wunderground v.1.15,2013-04-08 01:44:00,
2013-04-07 18:54:00,55.6,48.5,30.00,WNW,295,15.0,22.0,77,0.00,,,0.00,62,Wunderground v.1.15,2013-04-08 01:54:00,
2013-04-07 18:59:00,55.5,48.4,30.00,SSW,213,15.0,15.0,77,0.00,,,0.00,42,Wunderground v.1.15,2013-04-08 01:59:00,
2013-04-07 19:09:00,55.6,48.8,30.00,WNW,295,10.0,10.0,78,0.00,,,0.00,28,Wunderground v.1.15,2013-04-08 02:09:00,
2013-04-07 19:15:00,55.7,48.6,30.00,WNW,295,10.0,10.0,77,0.00,,,0.00,23,Wunderground v.1.15,2013-04-08 02:15:00,
2013-04-07 19:25:00,55.2,48.8,30.00,West,262,12.0,16.0,79,0.00,,,0.00,7,Wunderground v.1.15,2013-04-08 02:25:00,
2013-04-07 19:35:00,55.0,48.9,30.00,WNW,286,11.0,14.0,80,0.00,,,0.00,0,Wunderground v.1.15,2013-04-08 02:35:00,
2013-04-07 19:45:00,54.9,48.8,29.99,SSW,213,9.0,10.0,80,0.00,,,0.00,0,Wunderground v.1.15,2013-04-08 02:45:00,
2013-04-07 19:54:00,54.9,48.8,29.98,WNW,293,9.0,9.0,80,0.00,,,0.00,0,Wunderground v.1.15,2013-04-08 02:54:00,
2013-04-07 19:59:00,54.9,48.8,29.98,West,279,9.0,9.0,80,0.00,,,0.00,0,Wunderground v.1.15,2013-04-08 02:59:00,
2013-04-07 20:05:00,54.8,48.7,29.98,West,281,10.0,10.0,80,0.00,,,0.00,0,Wunderground v.1.15,2013-04-08 03:05:00,
2013-04-07 20:15:00,54.8,48.7,29.98,WNW,296,10.0,14.0,80,0.00,,,0.00,0,Wunderground v.1.15,2013-04-08 03:15:00,
2013-04-07 20:24:00,54.7,48.6,29.98,NW,307,12.0,14.0,80,0.00,,,0.00,0,Wunderground v.1.15,2013-04-08 03:24:00,
2013-04-07 20:34:00,54.4,49.0,29.98,WNW,301,13.0,17.0,82,0.00,,,0.00,0,Wunderground v.1.15,2013-04-08 03:34:00,
2013-04-07 20:40:00,53.9,49.2,29.98,WNW,294,12.0,12.0,84,0.00,,,0.00,0,Wunderground v.1.15,2013-04-08 03:40:00,
2013-04-07 20:49:00,53.3,49.5,29.97,WNW,292,11.0,11.0,87,0.00,,,0.00,0,Wunderground v.1.15,2013-04-08 03:49:00,
2013-04-07 21:04:00,53.6,50.1,29.96,WNW,285,12.0,13.0,88,0.00,,,0.00,0,Wunderground v.1.15,2013-04-08 04:04:00,
2013-04-07 21:10:00,53.4,50.2,29.96,West,270,12.0,15.0,89,0.00,,,0.00,0,Wunderground v.1.15,2013-04-08 04:10:00,
2013-04-07 21:14:00,53.3,50.1,29.96,West,278,13.0,15.0,89,0.00,,,0.00,0,Wunderground v.1.15,2013-04-08 04:14:00,
2013-04-07 21:19:00,53.2,50.0,29.96,WNW,287,14.0,14.0,89,0.00,,,0.00,0,Wunderground v.1.15,2013-04-08 04:19:00,
2013-04-07 21:25:00,53.0,50.1,29.95,West,265,12.0,14.0,90,0.00,,,0.00,0,Wunderground v.1.15,2013-04-08 04:25:00,
2013-04-07 21:34:00,52.5,50.2,29.95,WNW,282,10.0,11.0,92,0.00,,,0.00,0,Wunderground v.1.15,2013-04-08 04:34:00,
2013-04-07 21:40:00,52.5,50.5,29.95,West,262,9.0,9.0,93,0.00,,,0.00,0,Wunderground v.1.15,2013-04-08 04:40:00,
2013-04-07 21:50:00,52.5,50.5,29.95,West,261,7.0,7.0,93,0.00,,,0.00,0,Wunderground v.1.15,2013-04-08 04:50:00,
2013-04-07 21:59:00,52.6,50.9,29.94,West,263,7.0,7.0,94,0.00,,,0.00,0,Wunderground v.1.15,2013-04-08 04:59:00,
2013-04-07 22:05:00,52.7,51.0,29.93,West,261,8.0,8.0,94,0.00,,,0.00,0,Wunderground v.1.15,2013-04-08 05:05:00,
2013-04-07 22:15:00,53.1,51.4,29.92,West,280,9.0,15.0,94,0.00,,,0.00,0,Wunderground v.1.15,2013-04-08 05:15:00,
2013-04-07 22:25:00,53.1,51.7,29.91,West,264,11.0,12.0,95,0.00,,,0.00,0,Wunderground v.1.15,2013-04-08 05:25:00,
2013-04-07 22:34:00,53.4,52.0,29.91,WSW,241,13.0,15.0,95,0.00,,,0.01,0,Wunderground v.1.15,2013-04-08 05:34:00,
2013-04-07 22:40:00,53.7,52.3,29.90,WNW,283,12.0,13.0,95,0.00,,,0.01,0,Wunderground v.1.15,2013-04-08 05:40:00,
2013-04-07 22:49:00,54.4,52.7,29.89,West,270,16.0,17.0,94,0.00,,,0.01,0,Wunderground v.1.15,2013-04-08 05:49:00,
2013-04-07 22:59:00,54.5,52.8,29.89,WNW,301,16.0,16.0,94,0.00,,,0.01,0,Wunderground v.1.15,2013-04-08 05:59:00,
2013-04-07 23:05:00,54.5,52.5,29.89,NW,309,19.0,25.0,93,0.00,,,0.02,0,Wunderground v.1.15,2013-04-08 06:05:00,
2013-04-07 23:14:00,54.6,52.6,29.89,NW,312,20.0,21.0,93,0.00,,,0.02,0,Wunderground v.1.15,2013-04-08 06:14:00,
2013-04-07 23:24:00,54.4,52.1,29.90,NNW,330,20.0,20.0,92,0.00,,,0.02,0,Wunderground v.1.15,2013-04-08 06:24:00,
2013-04-07 23:30:00,54.4,51.8,29.89,NNW,342,19.0,19.0,91,0.00,,,0.02,0,Wunderground v.1.15,2013-04-08 06:30:00,
2013-04-07 23:39:00,54.7,50.9,29.89,NW,321,20.0,20.0,87,0.00,,,0.02,0,Wunderground v.1.15,2013-04-08 06:39:00,
2013-04-07 23:44:00,54.7,50.6,29.89,NW,324,18.0,25.0,86,0.00,,,0.02,0,Wunderground v.1.15,2013-04-08 06:44:00,
2013-04-07 23:54:00,54.8,50.4,29.90,North,359,16.0,22.0,85,0.00,,,0.02,0,Wunderground v.1.15,2013-04-08 06:54:00,